TimeCDT,TemperatureF,Dew PointF,Humidity,Sea Level PressureIn,VisibilityMPH,Wind Direction,Wind SpeedMPH,Gust SpeedMPH,PrecipitationIn,Events,Conditions,WindDirDegrees,DateUTC
12:15 AM,39.2,37.2,93,29.73,10.0,ENE,26.5,32.2,N/A,,Overcast,60,2013-04-11 05:15:00
12:35 AM,40.1,37.4,90,29.75,10.0,ENE,20.7,32.2,N/A,,Overcast,60,2013-04-11 05:35:00
12:55 AM,40.1,37.4,90,29.76,10.0,ENE,15.0,23.0,N/A,,Overcast,60,2013-04-11 05:55:00
1:15 AM,40.3,37.4,89,29.73,10.0,ENE,18.4,28.8,N/A,,Overcast,60,2013-04-11 06:15:00
1:35 AM,40.5,37.4,89,29.74,10.0,East,18.4,25.3,N/A,,Overcast,80,2013-04-11 06:35:00
1:55 AM,40.3,37.4,89,29.73,10.0,ENE,18.4,25.3,N/A,,Overcast,70,2013-04-11 06:55:00
2:15 AM,40.5,37.4,89,29.71,10.0,ENE,18.4,23.0,N/A,,Overcast,70,2013-04-11 07:15:00
2:35 AM,40.5,37.2,88,29.71,10.0,ENE,17.3,24.2,N/A,,Overcast,70,2013-04-11 07:35:00
2:55 AM,40.3,37.2,89,29.70,10.0,ENE,15.0,24.2,N/A,,Overcast,70,2013-04-11 07:55:00
3:15 AM,40.1,37.0,89,29.69,10.0,ENE,13.8,20.7,N/A,,Overcast,60,2013-04-11 08:15:00
3:35 AM,40.1,37.0,89,29.70,10.0,ENE,13.8,18.4,N/A,,Overcast,70,2013-04-11 08:35:00
3:55 AM,39.6,37.4,92,29.68,4.0,ENE,15.0,-,0.01,Rain,Light Rain,70,2013-04-11 08:55:00
4:15 AM,39.4,37.6,93,29.69,3.0,East,11.5,-,N/A,Rain,Light Rain,90,2013-04-11 09:15:00
4:35 AM,39.2,37.4,93,29.67,3.0,East,17.3,24.2,N/A,Rain,Light Rain,90,2013-04-11 09:35:00
4:55 AM,39.2,37.8,95,29.67,2.5,East,15.0,-,N/A,Rain,Light Rain,80,2013-04-11 09:55:00
5:15 AM,39.2,37.6,94,29.66,2.5,ENE,15.0,-,0.01,Rain,Light Rain,70,2013-04-11 10:15:00
5:35 AM,38.8,37.6,95,29.66,3.0,East,11.5,-,0.01,Rain,Heavy Rain,90,2013-04-11 10:35:00
5:55 AM,39.2,37.8,95,29.67,2.5,ESE,5.8,-,0.02,Rain,Rain,120,2013-04-11 10:55:00
6:15 AM,39.2,37.9,95,29.68,2.5,SSE,4.6,-,0.01,,Heavy Drizzle,160,2013-04-11 11:15:00
6:35 AM,39.2,38.3,97,29.68,2.0,East,5.8,-,0.03,,Heavy Drizzle,80,2013-04-11 11:35:00
6:55 AM,39.2,38.1,96,29.67,1.8,ENE,8.1,-,0.04,,Drizzle,70,2013-04-11 11:55:00
7:15 AM,39.2,38.3,97,29.66,4.0,ENE,9.2,-,N/A,,Light Drizzle,70,2013-04-11 12:15:00
7:35 AM,39.2,38.3,97,29.66,4.0,ENE,8.1,-,N/A,,Drizzle,60,2013-04-11 12:35:00
7:55 AM,39.6,38.5,96,29.66,10.0,ENE,10.4,-,0.01,,Overcast,70,2013-04-11 12:55:00
8:15 AM,40.1,38.7,95,29.65,10.0,ENE,11.5,-,N/A,,Overcast,60,2013-04-11 13:15:00
8:35 AM,40.3,38.8,95,29.65,3.0,NE,11.5,-,N/A,,Overcast,50,2013-04-11 13:35:00
8:55 AM,40.5,39.2,95,29.65,1.8,ENE,11.5,-,N/A,Rain,Light Rain,60,2013-04-11 13:55:00
9:15 AM,41.0,39.4,94,29.65,2.5,ENE,9.2,-,N/A,,Overcast,70,2013-04-11 14:15:00
9:35 AM,40.6,39.4,95,29.63,1.8,ENE,12.7,18.4,N/A,,Unknown,70,2013-04-11 14:35:00
9:55 AM,41.0,39.7,95,29.63,2.5,ENE,9.2,19.6,N/A,,Unknown,60,2013-04-11 14:55:00
10:15 AM,41.4,40.1,95,29.65,5.0,ENE,8.1,16.1,N/A,,Overcast,60,2013-04-11 15:15:00
10:35 AM,42.1,40.3,93,29.63,5.0,ENE,13.8,-,N/A,,Overcast,60,2013-04-11 15:35:00
10:55 AM,42.3,40.6,94,29.63,2.5,ENE,10.4,-,N/A,,Overcast,60,2013-04-11 15:55:00
11:15 AM,42.8,41.0,93,29.63,3.0,ENE,9.2,-,N/A,,Overcast,60,2013-04-11 16:15:00
11:35 AM,43.0,41.4,94,29.63,3.0,ENE,9.2,-,N/A,,Overcast,60,2013-04-11 16:35:00
12:15 PM,43.5,41.9,94,29.61,2.5,ENE,10.4,-,N/A,,Overcast,70,2013-04-11 17:15:00
12:35 PM,44.1,42.3,93,29.62,4.0,ENE,10.4,-,N/A,,Overcast,70,2013-04-11 17:35:00
12:55 PM,44.2,42.4,93,29.62,3.0,East,8.1,-,N/A,,Overcast,90,2013-04-11 17:55:00
1:15 PM,44.2,42.4,93,29.61,3.0,ENE,5.8,-,N/A,,Overcast,70,2013-04-11 18:15:00
1:35 PM,44.8,43.0,93,29.61,1.8,East,5.8,-,N/A,,Overcast,90,2013-04-11 18:35:00
1:55 PM,45.7,43.9,93,29.60,3.0,East,5.8,-,N/A,,Overcast,90,2013-04-11 18:55:00
2:15 PM,45.9,43.7,92,29.60,10.0,East,5.8,-,N/A,,Overcast,100,2013-04-11 19:15:00
2:35 PM,46.4,43.9,91,29.60,7.0,ESE,4.6,-,N/A,,Overcast,110,2013-04-11 19:35:00
2:55 PM,46.4,44.2,92,29.59,2.5,ESE,3.5,-,N/A,,Overcast,110,2013-04-11 19:55:00
3:15 PM,46.4,44.6,93,29.59,3.0,Calm,Calm,-,N/A,Rain,Light Rain,0,2013-04-11 20:15:00
3:35 PM,46.6,44.4,92,29.58,10.0,South,4.6,-,N/A,,Overcast,180,2013-04-11 20:35:00
3:55 PM,46.4,44.1,92,29.59,10.0,WSW,4.6,-,N/A,,Overcast,240,2013-04-11 20:55:00
4:15 PM,46.6,44.6,93,29.59,3.0,WSW,3.5,-,N/A,,Overcast,240,2013-04-11 21:15:00
4:35 PM,46.8,45.0,93,29.59,2.0,SSW,3.5,-,N/A,,Overcast,200,2013-04-11 21:35:00
4:55 PM,46.4,44.8,94,29.59,2.0,SW,3.5,-,N/A,,Drizzle,230,2013-04-11 21:55:00
5:15 PM,47.7,45.7,93,29.58,10.0,Calm,Calm,-,N/A,,Overcast,0,2013-04-11 22:15:00
5:35 PM,48.2,44.6,87,29.57,10.0,SSW,3.5,-,N/A,,Mostly Cloudy,200,2013-04-11 22:35:00
5:55 PM,48.2,44.4,87,29.56,10.0,SSW,3.5,-,N/A,,Overcast,200,2013-04-11 22:55:00
6:15 PM,48.2,44.2,86,29.57,7.0,South,11.5,-,N/A,,Overcast,190,2013-04-11 23:15:00
6:35 PM,45.5,42.8,90,29.58,5.0,SW,15.0,20.7,0.03,Rain,Light Rain,220,2013-04-11 23:35:00
6:55 PM,44.6,42.1,91,29.57,10.0,SW,11.5,-,0.04,,Drizzle,220,2013-04-11 23:55:00
7:15 PM,43.9,41.0,90,29.58,10.0,SW,12.7,-,N/A,,Overcast,230,2013-04-12 00:15:00
7:35 PM,43.7,40.6,89,29.59,10.0,SW,13.8,-,N/A,,Overcast,230,2013-04-12 00:35:00
7:55 PM,42.8,39.6,88,29.60,10.0,WSW,11.5,-,N/A,Rain,Light Rain,240,2013-04-12 00:55:00
8:15 PM,42.3,39.2,89,29.59,10.0,WSW,12.7,16.1,N/A,Rain,Light Rain,250,2013-04-12 01:15:00
8:35 PM,41.0,37.9,89,29.59,10.0,WSW,10.4,19.6,N/A,Rain,Rain,240,2013-04-12 01:35:00
8:55 PM,40.1,36.7,88,29.59,10.0,WSW,12.7,21.9,N/A,Rain,Light Rain,250,2013-04-12 01:55:00
9:15 PM,39.7,36.7,89,29.60,10.0,WSW,12.7,18.4,N/A,Rain,Light Rain,240,2013-04-12 02:15:00
9:35 PM,39.7,36.5,88,29.60,10.0,WSW,9.2,-,N/A,,Overcast,240,2013-04-12 02:35:00
9:55 PM,39.7,36.5,88,29.61,10.0,WSW,11.5,17.3,N/A,Rain,Light Rain,240,2013-04-12 02:55:00
10:15 PM,39.0,35.8,88,29.62,7.0,WSW,16.1,23.0,N/A,,Drizzle,240,2013-04-12 03:15:00
10:35 PM,38.3,35.8,91,29.62,7.0,WSW,17.3,24.2,N/A,Rain,Light Rain,240,2013-04-12 03:35:00
10:55 PM,37.8,34.3,87,29.61,7.0,WSW,15.0,21.9,N/A,,Overcast,240,2013-04-12 03:55:00
11:15 PM,37.8,34.5,88,29.61,10.0,WSW,10.4,16.1,N/A,,Overcast,240,2013-04-12 04:15:00
11:35 PM,37.9,34.2,86,29.61,10.0,SW,9.2,-,N/A,,Overcast,230,2013-04-12 04:35:00
11:55 PM,38.3,34.3,86,29.61,10.0,SW,10.4,-,N/A,,Overcast,230,2013-04-12 04:55:00